RH
22 20 20 18 18 15 18 20 19 20 20 37 50 54 53 51 60 63 65 56 55 54 51 51 50 50 52 61 78 82 82 87 80 70 76 67 66 61 53 52 52 52 54 61
24 26 21 29 22 25 24 25 27 26 26 32 45 51 58 59 65 66 66 67 60 59 65 69 67 68 69 70 75 85 80 62 68 72 63 54 48 48 52 54 56 59 66 66
29 23 25 29 30 30 32 30 30 27 26 30 33 36 52 57 68 73 75 74 72 70 78 92 96 77 62 62 57 58 50 52 56 52 48 47 48 50 51 54 60 67 66 58
31 29 27 29 31 30 35 30 29 28 25 27 29 25 44 56 65 69 74 80 85 86 80 73 65 51 44 42 43 44 44 46 48 50 53 54 56 58 60 63 67 67 54 40
32 30 30 32 30 27 36 35 34 34 36 36 38 30 36 60 65 69 70 74 75 70 67 60 49 44 43 44 43 46 49 50 54 56 58 61 64 63 65 68 62 45 43 47
34 29 30 29 35 31 40 39 43 46 43 45 49 37 33 55 56 64 67 69 67 65 59 50 45 44 46 49 49 51 54 57 60 61 61 62 63 63 62 52 44 44 45 50
36 36 32 30 33 33 37 40 50 55 60 54 48 49 37 40 47 56 61 63 63 57 49 45 46 51 51 52 57 58 59 61 57 55 58 60 61 54 45 42 47 56 57 59
41 40 32 30 32 35 40 40 58 53 62 55 45 51 38 47 44 55 59 59 56 54 49 50 53 54 55 62 61 61 59 56 55 56 58 56 46 44 45 56 62 63 61 62
45 40 31 30 31 32 41 39 41 62 70 61 48 46 40 51 48 54 55 61 59 54 55 56 58 60 64 64 64 61 57 55 57 58 48 43 45 51 56 60 62 56 43 35
43 45 34 30 32 36 33 39 45 50 54 46 42 49 41 53 53 51 54 58 60 59 60 62 67 69 66 67 61 57 50 49 50 43 44 46 48 50 53 51 40 31 32 37
40 40 40 37 36 38 40 43 50 47 52 42 48 32 45 45 49 52 50 55 60 59 61 66 70 67 63 60 54 48 46 46 45 51 43 42 46 44 38 32 32 38 39 42
42 50 54 41 35 38 36 40 42 47 41 64 57 38 36 47 48 53 53 59 55 55 59 67 66 62 60 54 50 53 47 52 52 42 41 41 39 32 29 30 38 49 50 41
45 52 57 43 34 36 39 43 45 50 59 58 73 34 42 54 54 54 54 55 57 61 66 64 61 59 56 52 46 46 51 43 41 42 41 35 32 30 39 48 54 49 38 39
39 52 49 50 38 41 43 51 45 43 56 49 51 34 33 49 54 60 60 59 63 66 63 62 61 59 53 45 44 51 45 43 42 38 33 32 34 43 49 56 50 36 42 46
45 47 49 53 53 46 35 42 50 42 43 46 37 42 32 36 48 56 70 70 68 67 65 62 60 53 44 48 52 46 41 40 33 34 32 37 45 50 55 53 37 43 48 57
57 60 48 58 60 56 49 40 42 50 46 45 45 43 35 44 54 63 65 72 74 69 65 64 55 46 47 50 38 38 35 32 37 34 36 44 51 55 54 43 45 53 62 73
58 66 59 57 60 47 54 46 42 43 43 40 45 33 58 61 63 61 69 71 71 65 64 62 51 48 41 36 36 33 34 38 34 35 41 51 57 53 47 49 57 61 66 85
64 61 65 61 62 42 31 43 40 41 38 41 42 48 54 57 58 55 57 59 63 63 65 61 51 44 37 35 33 35 39 34 29 40 52 56 50 50 56 61 65 62 71 89
58 68 77 67 54 38 23 36 47 52 35 40 41 52 67 68 65 64 60 59 58 61 62 59 47 38 34 33 36 39 33 27 34 45 47 47 51 58 66 72 72 64 74 87
63 63 66 76 50 45 32 31 46 42 55 43 48 65 73 68 71 49 51 58 63 65 65 52 42 35 34 37 39 34 27 27 34 38 42 46 49 62 82 85 80 71 74 88
92 93 78 79 68 57 41 37 43 50 46 47 50 50 71 66 52 44 49 59 66 64 58 46 34 35 38 39 34 24 24 30 35 39 40 40 44 68 91 90 84 78 82 86
76 89 93 90 79 65 42 50 55 48 37 35 45 36 38 37 49 56 58 67 70 63 42 38 48 38 39 32 22 21 28 35 39 39 39 41 46 72 88 89 87 82 82 94
67 64 70 64 63 44 38 48 40 44 40 37 43 45 48 53 63 64 66 70 62 40 80 72 41 39 31 22 23 27 31 37 39 39 42 48 60 80 90 93 91 81 74 96
68 64 67 63 46 54 43 36 35 35 40 43 48 48 52 57 68 72 68 51 65 96 54 60 44 30 23 25 28 31 36 37 38 40 49 68 79 87 91 95 96 88 88 96
62 65 65 67 58 46 36 36 37 39 42 46 50 55 61 70 77 70 52 90 91 58 80 46 28 24 26 29 30 34 35 36 39 49 61 75 86 87 91 97 98 94 91 98
69 64 74 70 41 44 41 47 50 50 53 56 64 72 81 84 73 66 99 70 68 89 47 26 25 27 30 32 34 35 37 40 48 61 74 82 87 87 88 94 97 95 92 92
Wind_Speed
1 3 3 3 3 3 4 3 3 2 2 6 4 4 6 3 7 11 11 13 13 13 14 13 13 12 13 15 15 17 21 14 4 3 12 12 6 3 2 4 6 5 7 10
4 3 1 4 3 5 4 7 3 3 3 4 4 6 7 6 2 4 11 12 13 11 9 7 6 5 5 3 7 10 9 14 12 12 9 5 1 2 5 5 5 7 10 14
4 2 4 3 4 7 4 5 2 3 4 6 3 3 2 5 6 4 6 10 12 13 15 15 15 15 17 20 20 18 17 15 14 10 6 3 3 4 7 8 8 9 14 17
4 3 3 4 3 2 4 1 4 4 2 2 3 3 2 1 3 4 9 13 19 24 23 20 18 25 27 24 20 17 15 12 8 4 2 4 7 8 8 8 8 12 15 19
1 2 4 4 1 2 3 3 4 3 4 2 2 2 1 0 4 8 13 16 19 19 17 20 24 23 21 19 15 12 11 11 7 5 5 6 7 7 6 7 10 15 18 18
2 2 3 2 3 4 8 4 5 3 2 1 1 3 3 5 5 11 14 15 16 16 18 22 22 21 19 19 17 16 14 9 6 5 5 6 7 6 6 10 14 17 19 21
4 3 2 3 4 3 4 4 2 1 1 3 1 2 5 4 6 17 20 18 18 17 21 23 24 22 18 15 12 12 10 6 4 6 6 6 5 8 10 13 14 16 17 18
3 0 2 3 1 4 2 3 4 4 3 1 1 4 1 2 5 19 21 20 21 21 21 22 20 17 14 9 11 10 7 5 5 5 4 3 7 9 11 13 16 17 18 20
3 1 2 3 1 1 3 2 2 6 1 1 2 3 5 1 5 15 21 19 22 23 23 22 19 17 12 12 11 9 7 5 2 1 3 7 9 11 14 16 17 17 22 25
5 3 1 0 2 6 1 7 3 2 3 3 2 4 5 4 8 12 18 23 22 23 21 21 19 16 15 15 11 7 3 2 2 4 7 9 11 14 15 15 20 23 23 25
3 3 2 1 1 5 2 2 5 4 1 2 1 4 4 8 11 16 23 24 23 22 21 21 19 17 16 11 7 2 2 2 3 7 9 11 12 13 17 22 21 23 26 29
1 4 3 2 0 1 1 3 4 3 4 1 0 5 2 5 10 13 17 17 19 19 18 18 18 16 12 8 5 2 2 7 8 8 9 10 14 19 23 21 21 24 29 32
5 1 3 2 2 1 3 3 4 5 2 5 4 4 1 4 6 15 16 16 17 19 20 20 17 14 11 7 4 2 12 6 9 9 11 15 20 21 18 18 22 29 33 30
4 3 4 6 3 1 4 4 5 4 3 4 6 4 4 6 7 10 15 19 19 23 22 19 16 13 9 6 5 10 7 8 7 10 16 19 17 15 16 22 28 31 29 25
2 4 2 1 1 2 2 4 8 8 4 6 4 9 6 9 11 13 13 18 23 24 22 18 15 12 8 5 7 8 6 5 9 15 18 16 15 15 21 27 29 27 23 20
2 3 2 3 1 3 3 5 7 8 3 10 4 13 9 4 5 14 20 24 24 24 22 18 14 11 9 7 7 6 5 9 13 16 16 16 15 18 25 27 25 23 20 16
2 5 3 3 3 3 5 9 12 6 6 8 10 10 6 5 10 17 21 26 26 26 21 17 14 10 8 7 6 6 8 12 15 15 14 12 17 23 25 24 23 23 19 16
5 4 2 1 2 1 4 2 3 12 10 13 5 4 8 4 7 11 19 24 26 23 19 16 13 11 10 9 8 8 10 14 15 12 11 17 21 23 23 23 22 21 18 16
3 4 3 3 2 6 5 3 6 6 6 12 14 6 5 5 3 7 17 20 23 21 17 14 13 12 11 9 7 9 13 15 13 12 15 19 21 23 23 22 20 18 15 15
5 5 3 3 3 5 5 2 3 4 4 2 11 8 10 11 3 5 17 21 22 19 16 15 13 13 10 7 9 12 14 13 13 14 17 20 22 23 22 21 20 16 14 15
2 3 3 2 3 7 6 3 3 2 5 2 13 15 17 7 10 4 8 22 20 16 15 14 12 9 6 8 12 14 14 14 15 17 19 22 23 21 22 22 21 17 15 14
5 6 3 3 1 6 6 4 4 3 4 6 14 17 17 14 10 9 11 19 18 16 16 10 8 7 8 11 14 14 14 16 17 19 22 22 21 18 20 24 21 19 16 15
3 4 4 8 4 4 11 8 9 9 6 6 13 15 17 17 15 14 17 19 19 20 9 7 7 8 11 13 13 13 14 17 19 21 22 22 20 19 20 22 20 18 15 15
4 5 2 1 2 10 18 18 23 26 26 20 16 14 17 20 16 18 20 22 16 6 10 7 11 10 11 11 13 14 16 19 21 22 21 20 21 21 21 21 19 17 15 16
3 7 4 4 11 14 11 12 12 15 18 19 19 18 16 17 19 20 24 13 12 13 8 11 9 9 10 12 13 16 19 22 23 22 19 18 19 21 22 18 17 17 18 17
9 5 4 5 8 5 11 13 15 11 12 14 13 11 9 11 21 21 14 16 11 6 10 8 7 9 11 13 16 18 21 22 22 20 17 17 18 20 21 19 20 18 17 16
Wind_Direction
62 133 133 159 141 137 145 118 112 46 66 89 81 83 14 15 143 161 170 183 189 199 212 225 237 238 227 230 233 237 223 208 321 193 154 158 205 210 232 265 259 261 311 326
36 94 348 66 101 108 119 113 91 106 27 99 177 80 56 49 75 189 177 182 185 188 184 178 177 170 178 176 140 237 186 131 130 148 145 150 132 235 238 259 285 313 332 332
127 150 107 104 100 104 62 107 135 122 102 77 148 135 69 71 80 113 168 177 167 162 150 137 124 115 123 120 120 128 117 115 129 134 107 50 306 302 306 305 302 319 320 324
74 359 93 88 100 125 92 24 107 106 118 158 336 254 309 52 112 149 155 154 147 140 137 137 133 128 124 124 122 116 116 116 124 140 212 285 296 300 300 302 305 312 322 330
203 117 98 69 357 71 124 92 84 95 96 141 54 252 273 217 218 180 172 166 157 152 148 144 138 133 133 132 132 138 145 160 173 213 262 283 295 307 310 303 311 321 328 331
94 73 71 123 53 63 150 91 58 63 75 211 137 224 232 205 216 181 187 188 173 162 153 150 150 152 156 158 161 160 169 180 200 240 279 305 312 314 317 323 326 327 325 322
13 3 345 62 87 67 76 70 17 6 13 239 72 197 269 236 209 181 186 192 183 173 169 168 172 174 173 172 182 171 177 187 242 292 304 314 317 322 321 324 322 312 310 312
137 22 18 1 94 150 93 163 162 200 203 245 201 234 207 272 207 189 188 187 185 185 185 188 187 187 186 203 175 178 193 231 272 290 296 309 305 306 308 296 296 299 300 301
132 134 352 41 135 164 163 122 123 106 37 262 253 266 253 93 182 182 185 187 194 196 196 198 199 199 205 197 191 197 219 251 258 194 305 302 303 299 298 303 306 309 309 307
184 115 16 86 96 53 144 138 125 40 157 245 279 278 252 218 194 186 188 195 199 199 198 199 201 203 200 192 194 210 230 231 206 292 289 298 301 308 314 316 315 314 313 314
130 105 255 224 227 172 142 120 65 103 94 175 285 257 223 244 194 195 200 199 198 196 200 200 197 189 184 190 212 214 9 220 277 312 304 306 312 318 318 318 319 322 323 321
136 125 148 189 218 309 165 150 143 132 186 82 109 272 217 274 230 213 206 199 201 205 200 191 183 181 186 202 207 252 148 310 305 289 302 316 321 320 317 318 324 326 323 322
184 96 99 15 355 354 217 155 113 105 101 188 161 257 213 276 236 215 200 198 198 195 182 178 179 186 198 205 204 266 316 300 283 301 314 315 314 315 317 319 322 325 325 324
116 120 165 192 188 150 186 183 171 141 148 170 229 260 240 230 216 201 196 201 192 185 181 181 187 198 205 209 254 303 269 269 291 307 310 314 314 309 311 320 324 326 327 326
103 156 136 108 21 263 243 192 186 204 174 191 229 218 235 229 216 203 192 183 180 182 185 190 197 204 203 241 270 247 251 280 299 310 318 310 296 301 315 319 323 328 331 330
21 160 133 195 349 3 279 247 211 227 217 253 236 265 218 238 196 185 192 186 186 188 190 195 202 203 211 227 230 226 266 295 310 318 312 295 293 309 314 320 327 331 330 328
99 137 121 245 360 352 313 223 207 196 207 212 225 244 166 196 208 204 194 196 194 194 195 201 204 207 215 218 225 248 279 303 314 313 303 295 303 310 318 326 327 327 323 319
127 100 60 162 10 262 252 187 192 224 243 215 248 189 193 212 222 224 213 205 201 198 199 206 211 212 209 213 233 267 299 311 314 309 296 301 309 317 322 326 326 320 313 312
50 123 98 149 209 303 277 193 187 181 280 214 218 178 164 148 161 228 211 212 209 205 210 213 207 202 205 219 255 294 308 314 311 306 303 310 317 320 321 323 324 319 306 304
57 59 110 134 184 232 247 307 200 167 283 267 196 158 161 152 173 248 219 212 205 205 210 203 197 198 207 240 287 303 308 309 304 304 311 316 318 314 313 319 322 318 308 298
47 21 165 143 235 285 255 260 149 109 255 241 187 184 171 197 216 232 195 203 202 202 193 186 187 206 235 282 300 304 304 303 304 308 314 317 316 308 305 313 318 314 303 297
173 153 187 110 202 274 193 128 177 233 280 224 195 195 210 235 221 214 188 187 187 180 172 171 223 231 278 300 304 305 303 302 306 310 313 316 318 311 305 310 312 309 296 292
229 199 181 197 220 248 205 238 239 264 273 273 242 237 236 232 219 206 179 173 171 163 176 194 238 271 296 299 306 309 307 305 307 311 312 313 318 317 309 309 307 307 294 280
234 177 216 114 247 242 258 256 269 270 275 280 276 274 261 241 217 186 171 160 155 184 167 215 252 282 293 306 313 312 310 310 311 311 309 307 315 320 311 301 299 302 293 283
200 149 179 260 280 282 288 293 318 292 282 284 276 273 261 236 204 184 162 162 157 147 212 244 275 296 310 316 316 312 312 311 308 308 309 308 311 317 311 298 295 298 301 286
182 185 177 232 293 254 292 320 315 305 297 288 273 256 224 206 175 160 144 135 142 214 232 266 298 313 315 316 316 317 313 308 305 306 310 313 312 315 314 302 299 295 301 296